Weather History for Hutchinson, KS

Change the Weather History Date:

Sunday, February 17, 2013

  Actual Average Record
Temperature  
Mean Temperature 45 °F -  
Max Temperature 69 °F 47 °F 75 °F (2009)
Min Temperature 21 °F 24 °F 3 °F (2006)
Degree Days  
Heating Degree Days 20    
Moisture  
Dew Point 25 °F    
Average Humidity 53    
Maximum Humidity 92    
Minimum Humidity 19    
Precipitation  
Precipitation 0.00 in - - ()
Sea Level Pressure  
Sea Level Pressure 29.80 in    
Wind  
Wind Speed 5 mph (South)    
Max Wind Speed 23 mph    
Max Gust Speed 30 mph    
Visibility 9 miles    
Events      
Averages and records for this station are not official NWS values.
T = Trace of Precipitation, MM = Missing Value Source: NWS Daily Summary

Daily Weather History Graph

Daily Weather History Graph

Search for Another Location

Airport:

Trip Planner

Search our weather history database for the weather conditions in past years. The results will help you decide how hot, cold, wet, or windy it might be!

Date:

Astronomy

Feb. 17, 2013 Rise Set
Actual Time 7:18 AM CST 6:12 PM CST
Civil Twilight 6:51 AM CST 6:39 PM CST
Nautical Twilight 6:21 AM CST 7:10 PM CST
Astronomical Twilight 5:50 AM CST 7:40 PM CST
Moon 11:20 AM CST (2/17) 1:02 AM CST (2/17)
Length of Visible Light 11h 47m
Length of Day
10h 53m
Waxing Crescent, 49% of the Moon is Illuminated
Feb 17
Waxing Crescent
Feb 17
First Quarter
Feb 25
Full
Mar 4
Last Quarter
Mar 11
New

Hourly Weather History & Observations

Time (CST) Temp. Windchill Dew Point Humidity Pressure Visibility Wind Dir Wind Speed Gust Speed Precip Events Conditions
12:52 AM 26.1 °F - 21.0 °F 81% 30.00 in 10.0 mi Calm Calm - N/A   Clear
1:52 AM 27.0 °F - 23.0 °F 85% 29.99 in 10.0 mi Calm Calm - N/A   Clear
2:52 AM 24.1 °F - 21.0 °F 88% 29.99 in 9.0 mi Calm Calm - N/A   Clear
3:52 AM 21.0 °F 16.2 °F 18.0 °F 88% 29.97 in 8.0 mi SSE 3.5 mph - N/A   Clear
4:52 AM 23.0 °F - 21.0 °F 92% 29.95 in 6.0 mi Calm Calm - N/A   Clear
5:52 AM 23.0 °F - 19.9 °F 88% 29.96 in 8.0 mi Calm Calm - N/A   Clear
6:52 AM 23.0 °F - 19.9 °F 88% 29.94 in 7.0 mi Calm Calm - N/A   Clear
7:52 AM 25.0 °F - 21.0 °F 85% 29.94 in 6.0 mi Calm Calm - N/A   Clear
8:52 AM 33.1 °F - 28.9 °F 85% 29.93 in 8.0 mi Calm Calm - N/A   Clear
9:52 AM 44.1 °F 41.5 °F 30.0 °F 58% 29.90 in 10.0 mi South 4.6 mph - N/A   Clear
10:52 AM 53.1 °F - 27.0 °F 37% 29.87 in 10.0 mi South 6.9 mph - N/A   Clear
11:52 AM 61.0 °F - 28.9 °F 30% 29.84 in 10.0 mi South 11.5 mph - N/A   Clear
12:52 PM 64.0 °F - 28.9 °F 27% 29.80 in 10.0 mi South 10.4 mph - N/A   Clear
1:52 PM 68.0 °F - 26.1 °F 21% 29.74 in 10.0 mi South 13.8 mph - N/A   Clear
2:52 PM 69.1 °F - 25.0 °F 19% 29.70 in 10.0 mi South 17.3 mph 25.3 mph N/A   Clear
3:52 PM 68.0 °F - 26.1 °F 21% 29.68 in 10.0 mi South 23.0 mph 29.9 mph N/A   Clear
4:52 PM 68.0 °F - 28.0 °F 22% 29.65 in 10.0 mi South 23.0 mph 29.9 mph N/A   Clear
5:52 PM 64.0 °F - 25.0 °F 23% 29.63 in 10.0 mi South 16.1 mph - N/A   Clear
6:52 PM 59.0 °F - 26.1 °F 28% 29.64 in 10.0 mi South 16.1 mph - N/A   Clear
7:52 PM 57.9 °F - 26.1 °F 30% 29.64 in 10.0 mi South 13.8 mph - N/A   Clear
8:52 PM 53.1 °F - 27.0 °F 37% 29.62 in 10.0 mi South 9.2 mph - N/A   Clear
9:52 PM 53.1 °F - 27.0 °F 37% 29.59 in 10.0 mi South 15.0 mph - N/A   Clear
11:52 PM 52.0 °F - 27.0 °F 38% 29.52 in 10.0 mi South 18.4 mph - N/A   Clear